STARLINK-34846, 66972

Orbit data source: Space-Track

STARLINK-34846, 66972 is a payload satellite owned by SpaceX/Seattle (US) in LEO that was launched on Mon, 08 Dec 2025 UTC via an FALCON 9 launch vehicle from the Air Force Eastern Test Range (AFETR). Payload-class satellites include a variety of spacecraft equipped with specific instruments for various scientific and technological missions. These include communications satellites like Starlink; space stations such as the ISS; scientific satellites like the Hubble; Earth observation satellites from companies like Planet Labs, Umbra, and HawkEye 360; GPS; miniature CubeSats for education and research; and military/defense satellites.

Loading next visibility...
Identifier
66972, 2025-288P
Orbit
LEO
Country
Flag of USUS
Related business
Manufacturer
SpaceX/Seattle
Mission
Operational Commercial Communications
Bus & Motor
STARLINK V2MO, Unknown motor
Mass
575 kg wet, ~530 kg dry
Launch date (UTC)
2025-12-08 (7 months ago)
Launch vehicle
FALCON 9
Launch site
Air Force Eastern Test Range (AFETR)
Object type
Payload
Rocket body
Debris
Shape & HBR
Box + 2 Pan, 17.7 m
Radar Cross Section
36.964 m², Large (>1 m²)

Expand to show TLE details & history
Last TLE update: 11 hours ago

TLE from 11 hours ago
0 STARLINK-34846
1 66972U 25288P   26177.58660612  .00016584  00000-0  61051-3 0  9992
2 66972  43.0042 128.3033 0001871 283.9695  76.0948 15.27597416 31942
Epoch: 2026-06-26T14:04Z
TLE epoch observation values (Epoch: 2026-06-26T14:04:42.768Z)
Latitude
-0.00007°
Longitude
2.41204°
Altitude
482.465 km
Speed
7.626 km/s
True Right ascension
08h 33m 12s
True Declination
0° 00' 00"
Sunlit
Object was in daylight at epoch
Visualization orbit readout
Latitude
Unknown
Longitude
Unknown
Altitude
Unknown
Speed
Unknown
Apparent Right ascension
Unknown
Apparent Declination
Unknown
Sunlit
N/A
Visualization observer readout
Local Sidereal Time
12:10:40
Azimuth
Unknown
Elevation
Unknown
Doppler factor
Unknown
Orbital elements
Apogee altitude
486.226 km
Perigee altitude
483.657 km
Semi-major axis
6,863.078 km
Eccentricity
0.00019
Inclination
43.0042°
RAAN
128.3033°
Arg. of periapsis
283.9695°
True anomaly
76.11561°
Mean anomaly
76.0948°
Eccentric anomaly
76.10521°
Mean motion
3.81737 °/min
Orbital period
94.31 mins
BSTAR
0.00061051
Loading maneuver chart data...
Computing Atmospheric mass density...
Loading historical data...
Loading historical data...
Loading historical data...
Loading historical data...
Loading historical data...
Loading historical data...
Loading historical data...

Documentation

Showing up to 5 results
|